| time (UTC) | temp C | wind direction | speed KPH | gust KPH | rain 1hr cm | rain 24hr cm | rain mn cm | humidity % | barometer mb |
| 20260506050221 | 13 | 97 | 4.8 | 16.1 | 0.00 | 0.20 | 0.00 | 94 | 1007.7 |
| 20260506044722 | 13 | 104 | 4.8 | 12.9 | 0.00 | 0.20 | 0.00 | 94 | 1007.9 |
| 20260506043223 | 13 | 98 | 3.2 | 9.7 | 0.00 | 0.20 | 0.00 | 94 | 1007.9 |
| 20260506041725 | 13 | 98 | 1.6 | 6.4 | 0.00 | 0.20 | 0.00 | 94 | 1008.0 |
| 20260506040228 | 13 | 86 | 1.6 | 11.3 | 0.00 | 0.20 | 0.00 | 94 | 1008.2 |
| 20260506034725 | 13 | 94 | 1.6 | 6.4 | 0.00 | 0.20 | 0.00 | 94 | 1008.0 |
| 20260506033226 | 13 | 94 | 3.2 | 12.9 | 0.00 | 0.20 | 0.00 | 94 | 1007.9 |
| 20260506031729 | 13 | 57 | 1.6 | 12.9 | 0.00 | 0.20 | 0.00 | 94 | 1008.0 |
| 20260506030230 | 13 | 107 | 6.4 | 11.3 | 0.00 | 0.20 | 0.00 | 94 | 1008.5 |
| 20260506024732 | 13 | 103 | 1.6 | 9.7 | 0.00 | 0.20 | 0.00 | 94 | 1008.7 |
| 20260506023218 | 13 | 84 | 9.7 | 16.1 | 0.00 | 0.20 | 0.00 | 94 | 1008.7 |
| 20260506021718 | 13 | 74 | 1.6 | 9.7 | 0.00 | 0.20 | 0.00 | 94 | 1009.1 |
| 20260506020220 | 13 | 107 | 0.0 | 6.4 | 0.00 | 0.20 | 0.00 | 94 | 1009.2 |
| 20260506014720 | 13 | 71 | 0.0 | 4.8 | 0.00 | 0.20 | 0.00 | 94 | 1009.0 |
| 20260506013220 | 13 | 68 | 0.0 | 1.6 | 0.00 | 0.20 | 0.00 | 94 | 1009.1 |
| 20260506011721 | 13 | 59 | 0.0 | 3.2 | 0.00 | 0.20 | 0.00 | 94 | 1009.1 |
| 20260506010227 | 13 | 83 | 1.6 | 9.7 | 0.00 | 0.20 | 0.00 | 94 | 1009.1 |
| 20260506004723 | 13 | 96 | 1.6 | 12.9 | 0.00 | 0.20 | 0.00 | 94 | 1009.4 |
| 20260506003224 | 13 | 78 | 0.0 | 4.8 | 0.00 | 0.20 | 0.00 | 94 | 1009.6 |
| 20260506001723 | 13 | 86 | 0.0 | 6.4 | 0.00 | 0.20 | 0.00 | 94 | 1009.9 |
| 20260506000229 | 13 | 85 | 1.6 | 6.4 | 0.00 | 0.20 | 0.00 | 94 | 1009.8 |
| 20260505234729 | 13 | 93 | 0.0 | 3.2 | 0.00 | 0.20 | 0.00 | 94 | 1010.1 |
| 20260505233230 | 13 | 93 | 0.0 | 3.2 | 0.00 | 0.20 | 0.00 | 94 | 1010.1 |
| 20260505231716 | 13 | 93 | 0.0 | 1.6 | 0.00 | 0.20 | 0.00 | 94 | 1010.1 |
| 20260505230217 | 13 | 93 | 0.0 | 3.2 | 0.00 | 0.20 | 0.00 | 94 | 1010.3 |
| 20260505224718 | 13 | 103 | 0.0 | 4.8 | 0.00 | 0.20 | 0.00 | 94 | 1010.5 |
| 20260505223224 | 13 | 163 | 0.0 | 1.6 | 0.00 | 0.20 | 0.00 | 94 | 1010.5 |
| 20260505221722 | 13 | 175 | 0.0 | 3.2 | 0.00 | 0.20 | 0.00 | 94 | 1010.6 |
| 20260505220223 | 13 | 52 | 0.0 | 1.6 | 0.00 | 0.20 | 0.05 | 94 | 1010.6 |
| 20260505214730 | 13 | 52 | 0.0 | 0.0 | 0.00 | 0.20 | 0.05 | 94 | 1010.7 |
| 20260505213231 | 13 | 52 | 0.0 | 6.4 | 0.00 | 0.20 | 0.05 | 94 | 1010.9 |
| 20260505211732 | 13 | 36 | 4.8 | 8.0 | 0.00 | 0.20 | 0.05 | 94 | 1011.0 |
| 20260505210216 | 13 | 23 | 0.0 | 3.2 | 0.00 | 0.20 | 0.05 | 94 | 1011.1 |
| 20260505204718 | 13 | 88 | 0.0 | 1.6 | 0.00 | 0.20 | 0.05 | 94 | 1011.3 |
| 20260505203220 | 13 | 87 | 0.0 | 3.2 | 0.00 | 0.20 | 0.05 | 93 | 1011.2 |
| 20260505201726 | 13 | 88 | 0.0 | 3.2 | 0.00 | 0.20 | 0.05 | 93 | 1011.3 |
| 20260505200229 | 13 | 87 | 0.0 | 1.6 | 0.00 | 0.20 | 0.05 | 93 | 1011.3 |
| 20260505194731 | 13 | 87 | 0.0 | 3.2 | 0.00 | 0.20 | 0.05 | 93 | 1011.2 |
| 20260505193229 | 13 | 87 | 0.0 | 3.2 | 0.00 | 0.20 | 0.05 | 93 | 1011.1 |
| 20260505191732 | 13 | 87 | 1.6 | 4.8 | 0.00 | 0.20 | 0.05 | 93 | 1011.0 |
| 20260505190233 | 13 | 82 | 1.6 | 6.4 | 0.00 | 0.20 | 0.05 | 93 | 1010.8 |
| 20260505184733 | 13 | 79 | 1.6 | 6.4 | 0.00 | 0.20 | 0.05 | 93 | 1010.7 |
| 20260505183216 | 13 | 98 | 1.6 | 4.8 | 0.00 | 0.20 | 0.05 | 93 | 1010.8 |
| 20260505181735 | 13 | 88 | 4.8 | 8.0 | 0.00 | 0.20 | 0.05 | 92 | 1010.7 |
| 20260505180234 | 13 | 94 | 3.2 | 11.3 | 0.00 | 0.20 | 0.05 | 92 | 1010.7 |
| 20260505174718 | 13 | 90 | 4.8 | 9.7 | 0.00 | 0.20 | 0.05 | 93 | 1010.7 |
| 20260505173220 | 13 | 40 | 3.2 | 12.9 | 0.00 | 0.20 | 0.05 | 93 | 1010.7 |
| 20260505171720 | 13 | 82 | 4.8 | 9.7 | 0.00 | 0.20 | 0.05 | 93 | 1010.8 |
| 20260505170226 | 13 | 84 | 6.4 | 16.1 | 0.00 | 0.20 | 0.05 | 93 | 1010.8 |
| 20260505164728 | 13 | 40 | 3.2 | 8.0 | 0.00 | 0.20 | 0.05 | 93 | 1010.8 |
| 20260505163230 | 13 | 61 | 4.8 | 11.3 | 0.00 | 0.20 | 0.05 | 93 | 1011.0 |
| 20260505161733 | 13 | 82 | 4.8 | 12.9 | 0.00 | 0.20 | 0.05 | 93 | 1011.0 |
| 20260505160235 | 13 | 35 | 3.2 | 12.9 | 0.00 | 0.20 | 0.05 | 93 | 1011.0 |
| 20260505153222 | 13 | 103 | 6.4 | 19.3 | 0.00 | 0.20 | 0.05 | 93 | 1011.2 |
| 20260505151722 | 13 | 93 | 4.8 | 19.3 | 0.00 | 0.20 | 0.05 | 93 | 1011.2 |
| 20260505150224 | 13 | 104 | 8.0 | 17.7 | 0.00 | 0.20 | 0.05 | 93 | 1011.3 |
| 20260505140231 | 13 | 97 | 4.8 | 11.3 | 0.00 | 0.20 | 0.05 | 93 | 1011.3 |
| 20260505130221 | 13 | 86 | 3.2 | 6.4 | 0.00 | 0.20 | 0.05 | 92 | 1011.6 |
| 20260505124723 | 13 | 87 | 6.4 | 14.5 | 0.10 | 0.20 | 0.05 | 92 | 1011.6 |
| 20260505123226 | 13 | 48 | 4.8 | 12.9 | 0.10 | 0.20 | 0.05 | 93 | 1011.7 |
| 20260505121731 | 13 | 63 | 4.8 | 9.7 | 0.10 | 0.20 | 0.05 | 93 | 1011.6 |
| 20260505120233 | 13 | 45 | 3.2 | 12.9 | 0.10 | 0.20 | 0.05 | 93 | 1011.7 |
| 20260505114735 | 13 | 89 | 4.8 | 11.3 | 0.00 | 0.10 | 0.03 | 93 | 1011.8 |
| 20260505113219 | 13 | 97 | 1.6 | 3.2 | 0.00 | 0.10 | 0.03 | 93 | 1011.9 |
| 20260505111720 | 13 | 97 | 0.0 | 3.2 | 0.00 | 0.10 | 0.03 | 93 | 1011.9 |
| 20260505110221 | 13 | 97 | 1.6 | 6.4 | 0.00 | 0.10 | 0.03 | 92 | 1011.9 |
| 20260505101731 | 13 | 153 | 0.0 | 1.6 | 0.00 | 0.10 | 0.03 | 90 | 1011.8 |
| 20260505100232 | 13 | 153 | 0.0 | 1.6 | 0.00 | 0.10 | 0.03 | 91 | 1011.9 |
| 20260505094736 | 13 | 153 | 3.2 | 4.8 | 0.00 | 0.10 | 0.03 | 90 | 1011.8 |
| 20260505093235 | 13 | 80 | 0.0 | 3.2 | 0.00 | 0.10 | 0.03 | 90 | 1011.6 |
| 20260505091717 | 13 | 80 | 1.6 | 11.3 | 0.00 | 0.10 | 0.03 | 91 | 1011.8 |
| 20260505090224 | 13 | 18 | 0.0 | 4.8 | 0.00 | 0.10 | 0.03 | 91 | 1011.6 |
| 20260505084725 | 13 | 52 | 0.0 | 6.4 | 0.00 | 0.10 | 0.03 | 90 | 1011.5 |
| 20260505083228 | 13 | 71 | 1.6 | 4.8 | 0.10 | 0.10 | 0.03 | 90 | 1011.4 |
| 20260505081735 | 12 | 71 | 0.0 | 6.4 | 0.10 | 0.10 | 0.03 | 91 | 1011.5 |
| 20260505080236 | 12 | 26 | 4.8 | 6.4 | 0.10 | 0.10 | 0.03 | 91 | 1011.4 |
| 20260505074718 | 12 | 36 | 4.8 | 9.7 | 0.10 | 0.10 | 0.03 | 91 | 1011.3 |
| 20260505073224 | 12 | 37 | 3.2 | 6.4 | 0.00 | 0.00 | 0.00 | 91 | 1011.2 |
| 20260505071725 | 12 | 217 | 0.0 | 3.2 | 0.00 | 0.00 | 0.00 | 91 | 1011.4 |
| 20260505070226 | 12 | 217 | 0.0 | 0.0 | 0.00 | 0.00 | 0.00 | 91 | 1011.6 |
| 20260505064730 | 12 | 217 | 0.0 | 4.8 | 0.00 | 0.00 | 0.00 | 90 | 1011.5 |
| 20260505063232 | 13 | 217 | 0.0 | 3.2 | 0.00 | 0.00 | 0.00 | 88 | 1011.3 |
| 20260505061733 | 13 | 216 | 3.2 | 12.9 | 0.00 | 0.00 | 0.00 | 87 | 1011.3 |
| 20260505060219 | 13 | 212 | 3.2 | 4.8 | 0.00 | 0.00 | 0.00 | 88 | 1011.2 |